Lid_Strength_Index
0 0 -0 -0 -0 -0 -0 0 1 2 2 2 1 1 1 1 2 6 9 6 4 2 2 5 7 6 6 6 6 7 12 13 12 12 12 12 12 11 11 12 12 11 11 9 6
1 0 0 0 -0 -0 -0 -0 0 1 2 2 2 1 1 1 6 9 4 2 2 1 5 7 8 7 9 8 8 10 12 13 12 12 12 11 12 12 13 12 12 12 9 8 7
1 1 0 0 0 -0 -1 -0 0 1 2 2 2 2 2 4 7 9 3 2 2 3 5 6 7 7 8 8 9 10 11 11 11 11 11 11 12 11 12 12 11 11 10 9 8
1 1 1 1 0 -0 -0 -0 0 1 1 2 3 2 2 6 12 8 4 3 3 5 6 7 8 9 10 11 9 12 11 11 11 10 11 12 11 12 12 12 11 10 9 9 9
1 1 1 1 0 -0 -0 0 1 1 2 2 2 2 5 9 11 7 3 4 5 5 7 8 10 10 11 11 11 12 12 11 11 11 11 11 12 13 12 10 10 10 10 9 9
1 1 1 1 1 0 0 1 1 2 3 3 2 3 8 11 7 6 7 6 6 6 8 8 9 9 11 11 12 11 11 12 11 11 11 12 12 12 12 11 10 10 10 10 9
1 0 0 0 0 1 1 2 2 3 3 3 3 6 8 11 7 7 6 7 6 7 8 7 8 9 10 12 10 11 13 12 12 11 11 11 14 13 11 10 11 10 10 10 10
1 1 0 0 0 1 2 2 3 4 3 3 4 7 11 8 8 7 6 7 6 6 6 6 7 8 9 10 11 13 13 16 12 12 12 13 16 12 12 13 12 12 11 10 9
1 1 1 0 1 1 2 3 3 4 5 4 7 8 12 8 9 8 7 8 7 6 6 7 8 10 10 12 14 13 16 16 15 12 13 14 16 13 12 13 13 12 12 11 10
0 1 1 1 2 2 2 3 3 4 4 7 7 8 10 12 9 9 7 7 8 8 7 8 10 12 13 13 17 16 16 16 17 14 14 15 15 13 12 12 13 13 12 12 11
1 1 1 2 1 2 2 3 5 6 7 11 12 12 11 10 8 8 7 8 8 9 12 11 12 14 15 15 14 15 17 16 14 14 16 16 15 14 12 13 13 13 13 12 11
1 1 2 2 2 2 3 7 9 8 9 10 11 11 11 9 11 9 8 10 13 13 11 11 14 13 12 13 15 15 17 17 15 14 16 16 16 14 13 13 14 13 13 12 12
2 2 2 2 2 3 7 8 6 6 9 11 11 11 11 10 11 11 9 10 13 14 14 14 14 12 13 15 16 16 17 18 18 16 15 17 18 15 14 13 12 12 12 11 11
2 2 2 2 3 4 7 6 5 5 13 12 12 11 10 9 11 9 9 10 12 16 14 14 13 13 15 16 15 17 15 16 17 19 22 17 24 16 16 14 13 12 13 12 12
2 3 3 2 3 6 6 5 5 6 19 11 11 8 8 9 10 10 8 9 12 14 13 14 14 15 15 15 14 16 14 17 17 21 21 20 23 17 16 15 14 13 12 12 11
3 3 2 2 3 5 3 4 5 13 20 14 10 10 10 8 9 8 9 8 9 12 13 14 12 13 14 13 14 14 16 17 19 21 25 24 22 19 17 16 14 12 12 12 12
3 4 3 3 5 3 3 5 13 17 11 13 13 10 11 12 10 10 10 11 13 16 15 15 15 13 12 16 14 16 19 22 22 24 22 26 23 19 15 14 13 13 13 12 12
3 2 3 3 3 2 3 10 17 13 14 9 10 10 12 12 12 11 12 13 12 14 15 17 18 16 13 15 17 16 19 22 26 24 23 25 24 17 15 14 13 13 12 12 13
2 1 2 3 2 2 7 14 14 13 10 12 10 13 13 12 13 12 13 13 12 13 16 17 17 14 13 13 15 17 22 18 23 27 26 20 17 14 15 17 14 14 13 13 12
2 2 4 3 2 3 11 12 14 9 9 10 14 12 16 13 13 13 13 12 12 12 13 15 19 16 14 13 15 17 16 21 22 27 27 21 22 19 19 20 18 15 16 14 13
2 7 4 2 2 9 13 13 13 8 8 11 12 13 13 14 13 13 13 12 11 12 12 14 17 18 15 18 18 19 20 20 20 19 24 25 20 16 18 19 19 17 14 16 16
4 12 3 2 11 11 12 12 10 9 8 9 10 11 13 13 13 15 13 12 10 12 15 13 14 20 17 14 13 15 17 16 21 23 21 21 22 15 17 17 19 18 15 15 15
8 8 3 3 13 13 11 12 11 10 11 12 12 10 10 15 16 12 12 10 10 12 13 13 18 22 18 17 16 18 15 14 18 17 22 23 20 17 18 19 18 17 14 13 14
7 12 10 9 8 11 14 13 13 10 10 10 11 11 12 16 13 16 13 11 11 12 10 11 15 19 19 18 17 19 17 15 18 23 20 18 17 16 16 17 15 14 14 14 15
8 11 10 13 11 11 11 12 13 15 10 10 13 12 14 17 14 17 13 12 11 10 12 13 18 16 15 15 16 16 17 16 18 17 20 16 17 14 12 14 14 13 16 15 14
9 10 9 11 11 12 12 13 13 13 12 13 14 12 12 16 13 15 13 13 13 12 13 12 17 19 22 15 14 16 14 15 15 16 17 16 16 11 10 11 11 12 15 15 14
7 7 9 11 12 13 13 12 13 12 11 10 11 12 13 12 11 10 10 10 11 12 13 14 17 21 19 17 20 21 18 15 15 15 15 18 14 11 13 15 15 14 16 14 14